Location: Ballingbuur
(53.0000°N, 5.7667°E)
Time: 05:58:23
(UTC+00:00)

Cosmos 1833 Rocket - Pass Details

Date: 29 November 2020
Orbit: 834 x 838 km, 71.0° (Epoch: 23 January)

Event Time Altitude Azimuth Distance (km) Brightness Sun altitude
Exits shadow 05:07:42 14° 339° (NNW) 2,216 4.6 -19.7°
Maximum altitude 05:12:20 42° 47° (NE) 1,185 3.7 -19.0°
Drops below altitude 10° 05:17:39 10° 118° (ESE) 2,446 6.3 -18.2°
Sets 05:20:13 0° 125° (SE) 3,377 7.1 -17.8°
